User: anonymous   Login
Location: Valdosta
(30.8330°N, 83.2790°W)
Time: 07:14:37
(UTC-05:00)
Language:

Uribyol 2 - Orbit

View from above orbital plane
View from above orbital plane
View from above satellite
View from above satellite

Ground track
Ground track

The orbit data is extracted from the following two-line orbital elements,

1 22828U 93061F   17324.88359767 -.00000008 +00000-0 +14371-4 0  9990
2 22828 098.8196 291.2952 0009631 186.2949 173.8114 14.30655548228113
Epoch (UTC): 20 November 2017 21:12:22
Eccentricity: 0.0009631
inclination: 98.8196°
perigee height: 782 km
apogee height: 796 km
right ascension of ascending node: 291.2952°
argument of perigee: 186.2949°
revolutions per day: 14.30655548
mean anomaly at epoch: 173.8114°
orbit number at epoch: 22811

The dashed part of the orbit path shows where the satellite is in the earth's shadow,  

DLR